Simultaneous Nadir Overpasses (SNOs) Predictions

Prediction of SNOs between FY3D and NOAA-19 Satellite Orbit:

Table of predicted SNOs for the next 14.0 days since TLE Epoch: 6/20/2020
Index Date (FY3D) Time (FY3D) Lat,Lon (FY3D) SZA (FY3D ) Date (NOAA-19) Time (NOAA-19) Lat,Lon (NOAA-19) SZA (NOAA-19 ) Distance(km) Time Diff (sec)
1 06/28/2020 04:50:54 -79.32,-104.39 122.16 06/28/2020 04:49:47 -79.35,-104.45 122.10 3.42 67
2 06/28/2020 05:41:39 79.34, 62.79 57.88 06/28/2020 05:40:43 79.34, 62.70 57.91 1.87 56
3 06/28/2020 06:32:24 -79.36,-130.01 122.10 06/28/2020 06:31:48 -79.34,-130.06 122.09 2.07 36
4 06/28/2020 07:23:08 79.34, 37.43 57.88 06/28/2020 07:22:43 79.36, 37.36 57.91 2.45 25
5 06/28/2020 08:13:53 -79.35,-155.36 122.10 06/28/2020 08:13:48 -79.36,-155.40 122.09 0.99 5
6 06/28/2020 09:04:38 79.37, 11.81 57.93 06/28/2020 09:04:44 79.34, 11.74 57.92 3.43 6
7 06/28/2020 09:55:22 -79.35, 179.29 122.10 06/28/2020 09:55:48 -79.37, 179.26 122.09 2.69 26
8 06/28/2020 10:46:07 79.37, -13.54 57.93 06/28/2020 10:46:44 79.36, -13.60 57.92 1.57 37
9 06/28/2020 11:36:52 -79.38, 153.67 122.05 06/28/2020 11:37:49 -79.36, 153.64 122.09 2.27 57
10 06/28/2020 12:27:36 79.37, -38.90 57.93 06/28/2020 12:28:44 79.38, -38.94 57.92 1.51 68




NCC Satellite Simultaneous Nadir Overpasses (SNOs) Prediction Service
